Year,Month,Day,Hour,Minute,Value (Times are PST for temperature in C)
2010,11,07,00,00,6.30
2010,11,07,00,01,6.30
2010,11,07,00,02,6.30
2010,11,07,00,03,6.30
2010,11,07,00,04,6.30
2010,11,07,00,05,6.30
2010,11,07,00,06,6.30
2010,11,07,00,07,6.30
2010,11,07,00,08,6.30
2010,11,07,00,09,6.30
2010,11,07,00,10,6.30
2010,11,07,00,11,6.30
2010,11,07,00,12,6.30
2010,11,07,00,13,6.30
2010,11,07,00,14,6.30
2010,11,07,00,15,6.30
2010,11,07,00,16,6.30
2010,11,07,00,17,6.30
2010,11,07,00,18,6.30
2010,11,07,00,19,6.30
2010,11,07,00,20,6.20
2010,11,07,00,21,6.20
2010,11,07,00,22,6.20
2010,11,07,00,23,6.20
2010,11,07,00,24,6.20
2010,11,07,00,25,6.20
2010,11,07,00,26,6.20
2010,11,07,00,27,6.20
2010,11,07,00,28,6.20
2010,11,07,00,29,6.20
2010,11,07,00,30,6.20
2010,11,07,00,31,6.20
2010,11,07,00,32,6.10
2010,11,07,00,33,6.10
2010,11,07,00,34,6.10
2010,11,07,00,35,6.10
2010,11,07,00,36,6.10
2010,11,07,00,37,6.10
2010,11,07,00,38,6.10
2010,11,07,00,39,6.10
2010,11,07,00,40,6.10
2010,11,07,00,41,6.10
2010,11,07,00,42,6.10
2010,11,07,00,43,6.00
2010,11,07,00,44,6.00
2010,11,07,00,45,6.00
2010,11,07,00,46,6.00
2010,11,07,00,47,6.00
2010,11,07,00,48,6.00
2010,11,07,00,49,5.90
2010,11,07,00,50,5.90
2010,11,07,00,51,5.90
2010,11,07,00,52,5.90
2010,11,07,00,53,5.90
2010,11,07,00,54,5.90
2010,11,07,00,55,5.90
2010,11,07,00,56,5.90
2010,11,07,00,57,5.90
2010,11,07,00,58,5.90
2010,11,07,00,59,5.80
2010,11,07,01,00,5.80
2010,11,07,01,01,5.80
2010,11,07,01,02,5.80
2010,11,07,01,03,5.80
2010,11,07,01,04,5.80
2010,11,07,01,05,5.80
2010,11,07,01,06,5.80
2010,11,07,01,07,5.80
2010,11,07,01,08,5.80
2010,11,07,01,09,5.80
2010,11,07,01,10,5.80
2010,11,07,01,11,5.80
2010,11,07,01,12,5.80
2010,11,07,01,13,5.80
2010,11,07,01,14,5.80
2010,11,07,01,15,5.80
2010,11,07,01,16,5.80
2010,11,07,01,17,5.80
2010,11,07,01,18,5.80
2010,11,07,01,19,5.80
2010,11,07,01,20,5.80
2010,11,07,01,21,5.80
2010,11,07,01,22,5.80
2010,11,07,01,23,5.80
2010,11,07,01,24,5.80
2010,11,07,01,25,5.80
2010,11,07,01,26,5.80
2010,11,07,01,27,5.80
2010,11,07,01,28,5.80
2010,11,07,01,29,5.70
2010,11,07,01,30,5.70
2010,11,07,01,31,5.70
2010,11,07,01,32,5.70
2010,11,07,01,33,5.70
2010,11,07,01,34,5.70
2010,11,07,01,35,5.70
2010,11,07,01,36,5.70
2010,11,07,01,37,5.70
2010,11,07,01,38,5.70
2010,11,07,01,39,5.70
2010,11,07,01,40,5.70
2010,11,07,01,41,5.70
2010,11,07,01,42,5.70
2010,11,07,01,43,5.60
2010,11,07,01,44,5.60
2010,11,07,01,45,5.60
2010,11,07,01,46,5.60
2010,11,07,01,47,5.60
2010,11,07,01,48,5.60
2010,11,07,01,49,5.60
2010,11,07,01,50,5.60
2010,11,07,01,51,5.60
2010,11,07,01,52,5.60
2010,11,07,01,53,5.60
2010,11,07,01,54,5.60
2010,11,07,01,55,5.60
2010,11,07,01,56,5.60
2010,11,07,01,57,5.60
2010,11,07,01,58,5.60
2010,11,07,01,59,5.60
2010,11,07,02,06,5.50
2010,11,07,02,07,5.50
2010,11,07,02,08,5.50
2010,11,07,02,09,5.50
2010,11,07,02,10,5.40
2010,11,07,02,11,5.40
2010,11,07,02,12,5.40
2010,11,07,02,13,5.40
2010,11,07,02,14,5.40
2010,11,07,02,15,5.40
2010,11,07,02,16,5.40
2010,11,07,02,17,5.40
2010,11,07,02,18,5.40
2010,11,07,02,19,5.40
2010,11,07,02,20,5.40
2010,11,07,02,21,5.40
2010,11,07,02,22,5.50
2010,11,07,02,23,5.50
2010,11,07,02,24,5.50
2010,11,07,02,25,5.50
2010,11,07,02,26,5.50
2010,11,07,02,27,5.40
2010,11,07,02,28,5.40
2010,11,07,02,29,5.40
2010,11,07,02,30,5.40
2010,11,07,02,31,5.40
2010,11,07,02,32,5.40
2010,11,07,02,33,5.40
2010,11,07,02,34,5.40
2010,11,07,02,35,5.40
2010,11,07,02,36,5.40
2010,11,07,02,37,5.40
2010,11,07,02,38,5.40
2010,11,07,02,39,5.40
2010,11,07,02,40,5.40
2010,11,07,02,41,5.40
2010,11,07,02,42,5.50
2010,11,07,02,43,5.40
2010,11,07,02,44,5.40
2010,11,07,02,45,5.40
2010,11,07,02,46,5.40
2010,11,07,02,47,5.40
2010,11,07,02,48,5.40
2010,11,07,02,49,5.30
2010,11,07,02,50,5.30
2010,11,07,02,51,5.30
2010,11,07,02,52,5.30
2010,11,07,02,53,5.30
2010,11,07,02,54,5.30
2010,11,07,02,55,5.30
2010,11,07,02,56,5.20
2010,11,07,02,57,5.20
2010,11,07,02,58,5.20
2010,11,07,02,59,5.20
2010,11,07,03,00,5.20
2010,11,07,03,01,5.20
2010,11,07,03,02,5.20
2010,11,07,03,03,5.20
2010,11,07,03,06,5.20
2010,11,07,03,07,5.30
2010,11,07,03,08,5.30
2010,11,07,03,09,5.30
2010,11,07,03,10,5.30
2010,11,07,03,11,5.30
2010,11,07,03,12,5.40
2010,11,07,03,13,5.40
2010,11,07,03,14,5.40
2010,11,07,03,15,5.40
2010,11,07,03,16,5.50
2010,11,07,03,17,5.50
2010,11,07,03,18,5.50
2010,11,07,03,19,5.60
2010,11,07,03,20,5.60
2010,11,07,03,21,5.60
2010,11,07,03,22,5.60
2010,11,07,03,23,5.60
2010,11,07,03,24,5.70
2010,11,07,03,25,5.70
2010,11,07,03,26,5.70
2010,11,07,03,27,5.70
2010,11,07,03,28,5.70
2010,11,07,03,29,5.70
2010,11,07,03,30,5.70
2010,11,07,03,31,5.80
2010,11,07,03,32,5.80
2010,11,07,03,33,5.80
2010,11,07,03,34,5.80
2010,11,07,03,35,5.80
2010,11,07,03,36,5.80
2010,11,07,03,37,5.80
2010,11,07,03,38,5.80
2010,11,07,03,39,5.80
2010,11,07,03,40,5.80
2010,11,07,03,41,5.80
2010,11,07,03,42,5.80
2010,11,07,03,43,5.80
2010,11,07,03,44,5.80
2010,11,07,03,45,5.80
2010,11,07,03,46,5.80
2010,11,07,03,47,5.90
2010,11,07,03,48,5.90
2010,11,07,03,49,5.90
2010,11,07,03,50,5.90
2010,11,07,03,51,5.90
2010,11,07,03,52,5.90
2010,11,07,03,53,5.90
2010,11,07,03,54,6.00
2010,11,07,03,55,6.00
2010,11,07,03,56,6.00
2010,11,07,03,57,6.00
2010,11,07,03,58,6.00
2010,11,07,03,59,6.00
2010,11,07,04,00,6.00
2010,11,07,04,01,6.00
2010,11,07,04,02,6.00
2010,11,07,04,03,6.00
2010,11,07,04,04,5.90
2010,11,07,04,05,5.90
2010,11,07,04,06,5.90
2010,11,07,04,07,5.90
2010,11,07,04,08,5.90
2010,11,07,04,09,5.90
2010,11,07,04,10,5.90
2010,11,07,04,11,5.90
2010,11,07,04,12,5.80
2010,11,07,04,13,5.80
2010,11,07,04,14,5.80
2010,11,07,04,15,5.80
2010,11,07,04,16,5.80
2010,11,07,04,17,5.80
2010,11,07,04,18,5.80
2010,11,07,04,19,5.80
2010,11,07,04,20,5.80
2010,11,07,04,21,5.80
2010,11,07,04,22,5.80
2010,11,07,04,23,5.80
2010,11,07,04,24,5.80
2010,11,07,04,25,5.80
2010,11,07,04,26,5.90
2010,11,07,04,27,5.90
2010,11,07,04,28,5.90
2010,11,07,04,29,5.90
2010,11,07,04,30,5.90
2010,11,07,04,31,5.90
2010,11,07,04,32,6.00
2010,11,07,04,33,6.00
2010,11,07,04,34,6.00
2010,11,07,04,35,6.00
2010,11,07,04,36,6.00
2010,11,07,04,37,6.00
2010,11,07,04,38,6.00
2010,11,07,04,39,6.00
2010,11,07,04,40,6.10
2010,11,07,04,41,6.10
2010,11,07,04,42,6.10
2010,11,07,04,43,6.10
2010,11,07,04,44,6.10
2010,11,07,04,45,6.10
2010,11,07,04,46,6.10
2010,11,07,04,47,6.10
2010,11,07,04,48,6.10
2010,11,07,04,49,6.10
2010,11,07,04,50,6.10
2010,11,07,04,51,6.10
2010,11,07,04,52,6.00
2010,11,07,04,53,6.00
2010,11,07,04,54,6.00
2010,11,07,04,55,6.00
2010,11,07,04,56,6.00
2010,11,07,04,57,6.00
2010,11,07,04,58,6.00
2010,11,07,04,59,6.00
2010,11,07,05,00,6.00
2010,11,07,05,01,6.00
2010,11,07,05,02,6.00
2010,11,07,05,03,6.00
2010,11,07,05,04,6.00
2010,11,07,05,05,6.00
2010,11,07,05,06,6.00
2010,11,07,05,07,6.00
2010,11,07,05,08,6.00
2010,11,07,05,09,6.00
2010,11,07,05,10,6.00
2010,11,07,05,11,6.00
2010,11,07,05,12,6.00
2010,11,07,05,13,6.00
2010,11,07,05,14,6.00
2010,11,07,05,15,6.00
2010,11,07,05,16,6.00
2010,11,07,05,17,6.00
2010,11,07,05,18,6.00
2010,11,07,05,19,6.00
2010,11,07,05,20,6.00
2010,11,07,05,21,6.00
2010,11,07,05,22,6.00
2010,11,07,05,23,6.00
2010,11,07,05,24,6.00
2010,11,07,05,25,6.00
2010,11,07,05,26,6.10
2010,11,07,05,27,6.10
2010,11,07,05,28,6.10
2010,11,07,05,29,6.10
2010,11,07,05,30,6.10
2010,11,07,05,31,6.10
2010,11,07,05,32,6.10
2010,11,07,05,33,6.10
2010,11,07,05,34,6.10
2010,11,07,05,35,6.10
2010,11,07,05,36,6.20
2010,11,07,05,37,6.20
2010,11,07,05,38,6.20
2010,11,07,05,39,6.20
2010,11,07,05,40,6.20
2010,11,07,05,41,6.20
2010,11,07,05,42,6.20
2010,11,07,05,43,6.10
2010,11,07,05,44,6.10
2010,11,07,05,45,6.10
2010,11,07,05,46,6.10
2010,11,07,05,47,6.10
2010,11,07,05,48,6.10
2010,11,07,05,49,6.10
2010,11,07,05,50,6.10
2010,11,07,05,51,6.10
2010,11,07,05,52,6.00
2010,11,07,05,53,5.90
2010,11,07,05,54,5.90
2010,11,07,05,55,5.80
2010,11,07,05,56,5.80
2010,11,07,05,57,5.80
2010,11,07,05,58,5.70
2010,11,07,05,59,5.70
2010,11,07,06,00,5.70
2010,11,07,06,01,5.70
2010,11,07,06,02,5.70
2010,11,07,06,03,5.70
2010,11,07,06,04,5.70
2010,11,07,06,05,5.70
2010,11,07,06,06,5.70
2010,11,07,06,07,5.70
2010,11,07,06,08,5.70
2010,11,07,06,09,5.70
2010,11,07,06,10,5.70
2010,11,07,06,11,5.70
2010,11,07,06,12,5.70
2010,11,07,06,13,5.70
2010,11,07,06,14,5.70
2010,11,07,06,15,5.70
2010,11,07,06,16,5.70
2010,11,07,06,17,5.70
2010,11,07,06,18,5.70
2010,11,07,06,19,5.70
2010,11,07,06,20,5.70
2010,11,07,06,21,5.70
2010,11,07,06,22,5.70
2010,11,07,06,23,5.60
2010,11,07,06,24,5.60
2010,11,07,06,25,5.60
2010,11,07,06,26,5.60
2010,11,07,06,27,5.60
2010,11,07,06,28,5.60
2010,11,07,06,29,5.60
2010,11,07,06,30,5.60
2010,11,07,06,31,5.60
2010,11,07,06,32,5.60
2010,11,07,06,33,5.60
2010,11,07,06,34,5.60
2010,11,07,06,35,5.60
2010,11,07,06,36,5.60
2010,11,07,06,37,5.60
2010,11,07,06,38,5.60
2010,11,07,06,39,5.60
2010,11,07,06,40,5.60
2010,11,07,06,41,5.60
2010,11,07,06,42,5.60
2010,11,07,06,43,5.60
2010,11,07,06,44,5.60
2010,11,07,06,45,5.60
2010,11,07,06,46,5.60
2010,11,07,06,47,5.60
2010,11,07,06,48,5.50
2010,11,07,06,49,5.50
2010,11,07,06,50,5.50
2010,11,07,06,51,5.50
2010,11,07,06,52,5.50
2010,11,07,06,53,5.50
2010,11,07,06,54,5.50
2010,11,07,06,55,5.50
2010,11,07,06,56,5.40
2010,11,07,06,57,5.40
2010,11,07,06,58,5.40
2010,11,07,06,59,5.40
2010,11,07,07,00,5.40
2010,11,07,07,01,5.40
2010,11,07,07,02,5.40
2010,11,07,07,03,5.40
2010,11,07,07,04,5.40
2010,11,07,07,05,5.30
2010,11,07,07,06,5.30
2010,11,07,07,07,5.30
2010,11,07,07,08,5.30
2010,11,07,07,09,5.30
2010,11,07,07,10,5.30
2010,11,07,07,11,5.30
2010,11,07,07,12,5.30
2010,11,07,07,13,5.30
2010,11,07,07,14,5.30
2010,11,07,07,15,5.30
2010,11,07,07,16,5.30
2010,11,07,07,17,5.20
2010,11,07,07,18,5.20
2010,11,07,07,19,5.20
2010,11,07,07,20,5.20
2010,11,07,07,21,5.20
2010,11,07,07,22,5.20
2010,11,07,07,23,5.10
2010,11,07,07,24,5.10
2010,11,07,07,25,5.10
2010,11,07,07,26,5.10
2010,11,07,07,27,5.00
2010,11,07,07,28,5.00
2010,11,07,07,29,4.90
2010,11,07,07,30,4.90
2010,11,07,07,31,4.90
2010,11,07,07,32,4.80
2010,11,07,07,33,4.80
2010,11,07,07,34,4.80
2010,11,07,07,35,4.80
2010,11,07,07,36,4.80
2010,11,07,07,37,4.80
2010,11,07,07,38,4.80
2010,11,07,07,39,4.80
2010,11,07,07,40,4.80
2010,11,07,07,41,4.80
2010,11,07,07,42,4.80
2010,11,07,07,43,4.70
2010,11,07,07,44,4.70
2010,11,07,07,45,4.70
2010,11,07,07,46,4.70
2010,11,07,07,47,4.70
2010,11,07,07,48,4.70
2010,11,07,07,49,4.70
2010,11,07,07,50,4.80
2010,11,07,07,51,4.80
2010,11,07,07,52,4.80
2010,11,07,07,53,4.80
2010,11,07,07,54,4.80
2010,11,07,07,55,4.80
2010,11,07,07,56,4.80
2010,11,07,07,57,4.80
2010,11,07,07,58,4.80
2010,11,07,07,59,4.80
2010,11,07,08,00,4.80
2010,11,07,08,01,4.80
2010,11,07,08,02,4.80
2010,11,07,08,03,4.90
2010,11,07,08,04,4.90
2010,11,07,08,05,4.90
2010,11,07,08,06,4.90
2010,11,07,08,07,4.90
2010,11,07,08,08,4.90
2010,11,07,08,09,4.90
2010,11,07,08,10,5.00
2010,11,07,08,11,5.00
2010,11,07,08,12,5.00
2010,11,07,08,13,5.00
2010,11,07,08,14,5.00
2010,11,07,08,15,5.10
2010,11,07,08,16,5.10
2010,11,07,08,17,5.10
2010,11,07,08,18,5.20
2010,11,07,08,19,5.20
2010,11,07,08,20,5.20
2010,11,07,08,21,5.20
2010,11,07,08,22,5.20
2010,11,07,08,23,5.20
2010,11,07,08,24,5.20
2010,11,07,08,25,5.20
2010,11,07,08,26,5.20
2010,11,07,08,27,5.10
2010,11,07,08,28,5.10
2010,11,07,08,29,5.10
2010,11,07,08,30,5.10
2010,11,07,08,31,5.10
2010,11,07,08,32,5.10
2010,11,07,08,33,5.10
2010,11,07,08,34,5.20
2010,11,07,08,35,5.20
2010,11,07,08,36,5.20
2010,11,07,08,37,5.20
2010,11,07,08,38,5.20
2010,11,07,08,39,5.20
2010,11,07,08,40,5.30
2010,11,07,08,41,5.30
2010,11,07,08,42,5.30
2010,11,07,08,43,5.40
2010,11,07,08,44,5.40
2010,11,07,08,45,5.40
2010,11,07,08,46,5.50
2010,11,07,08,47,5.50
2010,11,07,08,48,5.60
2010,11,07,08,49,5.60
2010,11,07,08,50,5.70
2010,11,07,08,51,5.70
2010,11,07,08,52,5.70
2010,11,07,08,53,5.80
2010,11,07,08,54,5.80
2010,11,07,08,55,5.80
2010,11,07,08,56,5.80
2010,11,07,08,57,5.80
2010,11,07,08,58,5.80
2010,11,07,08,59,5.80
2010,11,07,09,00,5.80
2010,11,07,09,01,5.80
2010,11,07,09,02,5.80
2010,11,07,09,03,5.80
2010,11,07,09,04,5.90
2010,11,07,09,05,5.90
2010,11,07,09,06,5.90
2010,11,07,09,07,5.90
2010,11,07,09,08,5.90
2010,11,07,09,09,5.90
2010,11,07,09,10,5.90
2010,11,07,09,11,5.90
2010,11,07,09,12,5.90
2010,11,07,09,13,5.90
2010,11,07,09,14,5.90
2010,11,07,09,15,5.90
2010,11,07,09,16,5.90
2010,11,07,09,17,6.00
2010,11,07,09,18,6.00
2010,11,07,09,19,6.00
2010,11,07,09,20,6.00
2010,11,07,09,21,6.00
2010,11,07,09,22,6.10
2010,11,07,09,23,6.10
2010,11,07,09,24,6.10
2010,11,07,09,25,6.10
2010,11,07,09,26,6.20
2010,11,07,09,27,6.20
2010,11,07,09,28,6.20
2010,11,07,09,29,6.20
2010,11,07,09,30,6.30
2010,11,07,09,31,6.30
2010,11,07,09,32,6.30
2010,11,07,09,33,6.40
2010,11,07,09,34,6.40
2010,11,07,09,35,6.40
2010,11,07,09,36,6.50
2010,11,07,09,37,6.50
2010,11,07,09,38,6.50
2010,11,07,09,39,6.50
2010,11,07,09,40,6.60
2010,11,07,09,41,6.60
2010,11,07,09,42,6.60
2010,11,07,09,43,6.60
2010,11,07,09,44,6.60
2010,11,07,09,45,6.60
2010,11,07,09,46,6.70
2010,11,07,09,47,6.70
2010,11,07,09,48,6.70
2010,11,07,09,49,6.80
2010,11,07,09,50,6.80
2010,11,07,09,51,6.80
2010,11,07,09,52,6.80
2010,11,07,09,53,6.80
2010,11,07,09,54,6.80
2010,11,07,09,55,6.80
2010,11,07,09,56,6.80
2010,11,07,09,57,6.80
2010,11,07,09,58,6.80
2010,11,07,09,59,6.80
2010,11,07,10,00,6.80
2010,11,07,10,01,6.80
2010,11,07,10,02,6.80
2010,11,07,10,03,6.80
2010,11,07,10,04,6.80
2010,11,07,10,05,6.80
2010,11,07,10,06,6.80
2010,11,07,10,07,6.80
2010,11,07,10,08,6.80
2010,11,07,10,09,6.80
2010,11,07,10,10,6.80
2010,11,07,10,11,6.90
2010,11,07,10,12,6.90
2010,11,07,10,13,7.00
2010,11,07,10,14,7.00
2010,11,07,10,15,7.10
2010,11,07,10,16,7.20
2010,11,07,10,17,7.20
2010,11,07,10,18,7.20
2010,11,07,10,19,7.30
2010,11,07,10,20,7.20
2010,11,07,10,21,7.20
2010,11,07,10,22,7.20
2010,11,07,10,23,7.20
2010,11,07,10,24,7.20
2010,11,07,10,25,7.20
2010,11,07,10,26,7.20
2010,11,07,10,27,7.20
2010,11,07,10,28,7.20
2010,11,07,10,29,7.20
2010,11,07,10,30,7.30
2010,11,07,10,31,7.30
2010,11,07,10,32,7.30
2010,11,07,10,33,7.30
2010,11,07,10,34,7.30
2010,11,07,10,35,7.30
2010,11,07,10,36,7.30
2010,11,07,10,37,7.30
2010,11,07,10,38,7.40
2010,11,07,10,39,7.40
2010,11,07,10,40,7.50
2010,11,07,10,41,7.50
2010,11,07,10,42,7.60
2010,11,07,10,43,7.60
2010,11,07,10,44,7.60
2010,11,07,10,45,7.70
2010,11,07,10,46,7.70
2010,11,07,10,47,7.70
2010,11,07,10,48,7.80
2010,11,07,10,49,7.80
2010,11,07,10,50,7.80
2010,11,07,10,51,7.90
2010,11,07,10,52,7.90
2010,11,07,10,53,8.00
2010,11,07,10,54,8.00
2010,11,07,10,55,8.10
2010,11,07,10,56,8.10
2010,11,07,10,57,8.20
2010,11,07,10,58,8.30
2010,11,07,10,59,8.30
2010,11,07,11,00,8.30
2010,11,07,11,01,8.30
2010,11,07,11,02,8.40
2010,11,07,11,03,8.40
2010,11,07,11,04,8.40
2010,11,07,11,05,8.40
2010,11,07,11,06,8.40
2010,11,07,11,07,8.50
2010,11,07,11,08,8.60
2010,11,07,11,09,8.60
2010,11,07,11,10,8.60
2010,11,07,11,11,8.70
2010,11,07,11,12,8.70
2010,11,07,11,13,8.80
2010,11,07,11,14,8.80
2010,11,07,11,15,8.80
2010,11,07,11,16,8.80
2010,11,07,11,17,8.80
2010,11,07,11,18,8.90
2010,11,07,11,19,9.00
2010,11,07,11,20,9.10
2010,11,07,11,21,9.10
2010,11,07,11,22,9.20
2010,11,07,11,23,9.30
2010,11,07,11,24,9.30
2010,11,07,11,25,9.30
2010,11,07,11,26,9.30
2010,11,07,11,27,9.30
2010,11,07,11,28,9.30
2010,11,07,11,29,9.30
2010,11,07,11,30,9.30
2010,11,07,11,31,9.30
2010,11,07,11,32,9.40
2010,11,07,11,33,9.40
2010,11,07,11,34,9.50
2010,11,07,11,35,9.50
2010,11,07,11,36,9.60
2010,11,07,11,37,9.60
2010,11,07,11,38,9.60
2010,11,07,11,39,9.60
2010,11,07,11,40,9.70
2010,11,07,11,41,9.70
2010,11,07,11,42,9.70
2010,11,07,11,43,9.70
2010,11,07,11,44,9.60
2010,11,07,11,45,9.60
2010,11,07,11,46,9.60
2010,11,07,11,47,9.60
2010,11,07,11,48,9.60
2010,11,07,11,49,9.50
2010,11,07,11,50,9.50
2010,11,07,11,51,9.40
2010,11,07,11,52,9.40
2010,11,07,11,53,9.40
2010,11,07,11,54,9.30
2010,11,07,11,55,9.30
2010,11,07,11,56,9.30
2010,11,07,11,57,9.30
2010,11,07,11,58,9.30
2010,11,07,11,59,9.30
2010,11,07,12,00,9.30
2010,11,07,12,01,9.30
2010,11,07,12,02,9.30
2010,11,07,12,03,9.40
2010,11,07,12,04,9.40
2010,11,07,12,05,9.40
2010,11,07,12,06,9.50
2010,11,07,12,07,9.50
2010,11,07,12,08,9.60
2010,11,07,12,09,9.60
2010,11,07,12,10,9.70
2010,11,07,12,11,9.70
2010,11,07,12,12,9.70
2010,11,07,12,13,9.70
2010,11,07,12,14,9.70
2010,11,07,12,15,9.70
2010,11,07,12,16,9.60
2010,11,07,12,17,9.60
2010,11,07,12,18,9.60
2010,11,07,12,19,9.60
2010,11,07,12,20,9.60
2010,11,07,12,21,9.60
2010,11,07,12,22,9.60
2010,11,07,12,23,9.60
2010,11,07,12,24,9.60
2010,11,07,12,25,9.60
2010,11,07,12,26,9.60
2010,11,07,12,27,9.60
2010,11,07,12,28,9.60
2010,11,07,12,29,9.60
2010,11,07,12,30,9.60
2010,11,07,12,31,9.60
2010,11,07,12,32,9.60
2010,11,07,12,33,9.60
2010,11,07,12,34,9.60
2010,11,07,12,35,9.50
2010,11,07,12,36,9.50
2010,11,07,12,37,9.50
2010,11,07,12,38,9.40
2010,11,07,12,39,9.40
2010,11,07,12,40,9.40
2010,11,07,12,41,9.30
2010,11,07,12,42,9.30
2010,11,07,12,43,9.30
2010,11,07,12,44,9.20
2010,11,07,12,45,9.20
2010,11,07,12,46,9.20
2010,11,07,12,47,9.20
2010,11,07,12,48,9.20
2010,11,07,12,49,9.20
2010,11,07,12,50,9.20
2010,11,07,12,51,9.20
2010,11,07,12,52,9.20
2010,11,07,12,53,9.20
2010,11,07,12,54,9.20
2010,11,07,12,55,9.20
2010,11,07,12,56,9.20
2010,11,07,12,57,9.30
2010,11,07,12,58,9.30
2010,11,07,12,59,9.30
2010,11,07,13,00,9.30
2010,11,07,13,01,9.30
2010,11,07,13,02,9.30
2010,11,07,13,03,9.40
2010,11,07,13,04,9.40
2010,11,07,13,05,9.40
2010,11,07,13,06,9.40
2010,11,07,13,07,9.40
2010,11,07,13,08,9.40
2010,11,07,13,09,9.30
2010,11,07,13,10,9.40
2010,11,07,13,11,9.40
2010,11,07,13,12,9.40
2010,11,07,13,13,9.40
2010,11,07,13,14,9.40
2010,11,07,13,15,9.40
2010,11,07,13,16,9.40
2010,11,07,13,17,9.30
2010,11,07,13,18,9.30
2010,11,07,13,19,9.30
2010,11,07,13,20,9.30
2010,11,07,13,21,9.30
2010,11,07,13,22,9.30
2010,11,07,13,23,9.40
2010,11,07,13,24,9.30
2010,11,07,13,25,9.40
2010,11,07,13,26,9.40
2010,11,07,13,27,9.40
2010,11,07,13,28,9.40
2010,11,07,13,29,9.40
2010,11,07,13,30,9.30
2010,11,07,13,31,9.30
2010,11,07,13,32,9.30
2010,11,07,13,33,9.30
2010,11,07,13,34,9.20
2010,11,07,13,35,9.20
2010,11,07,13,36,9.20
2010,11,07,13,37,9.20
2010,11,07,13,38,9.20
2010,11,07,13,39,9.20
2010,11,07,13,40,9.20
2010,11,07,13,41,9.20
2010,11,07,13,42,9.20
2010,11,07,13,43,9.30
2010,11,07,13,44,9.40
2010,11,07,13,45,9.40
2010,11,07,13,46,9.50
2010,11,07,13,47,9.50
2010,11,07,13,48,9.50
2010,11,07,13,49,9.60
2010,11,07,13,50,9.70
2010,11,07,13,51,9.70
2010,11,07,13,52,9.80
2010,11,07,13,53,9.80
2010,11,07,13,54,9.80
2010,11,07,13,55,9.90
2010,11,07,13,56,10.00
2010,11,07,13,57,10.10
2010,11,07,13,58,10.10
2010,11,07,13,59,10.20
2010,11,07,14,00,10.20
2010,11,07,14,01,10.20
2010,11,07,14,02,10.10
2010,11,07,14,03,10.10
2010,11,07,14,04,10.00
2010,11,07,14,05,9.90
2010,11,07,14,06,9.90
2010,11,07,14,07,9.80
2010,11,07,14,08,9.80
2010,11,07,14,09,9.90
2010,11,07,14,10,9.90
2010,11,07,14,11,10.00
2010,11,07,14,12,10.00
2010,11,07,14,13,10.00
2010,11,07,14,14,10.00
2010,11,07,14,15,9.90
2010,11,07,14,16,9.90
2010,11,07,14,17,9.80
2010,11,07,14,18,9.70
2010,11,07,14,19,9.70
2010,11,07,14,20,9.70
2010,11,07,14,21,9.70
2010,11,07,14,22,9.60
2010,11,07,14,23,9.60
2010,11,07,14,24,9.60
2010,11,07,14,25,9.60
2010,11,07,14,26,9.50
2010,11,07,14,27,9.50
2010,11,07,14,28,9.40
2010,11,07,14,29,9.30
2010,11,07,14,30,9.30
2010,11,07,14,31,9.20
2010,11,07,14,32,9.20
2010,11,07,14,33,9.20
2010,11,07,14,34,9.20
2010,11,07,14,35,9.20
2010,11,07,14,36,9.20
2010,11,07,14,37,9.10
2010,11,07,14,38,9.10
2010,11,07,14,39,9.00
2010,11,07,14,40,9.00
2010,11,07,14,41,9.00
2010,11,07,14,42,9.00
2010,11,07,14,43,9.00
2010,11,07,14,44,9.00
2010,11,07,14,45,9.00
2010,11,07,14,46,9.00
2010,11,07,14,47,9.00
2010,11,07,14,48,9.00
2010,11,07,14,49,9.00
2010,11,07,14,50,9.00
2010,11,07,14,51,9.00
2010,11,07,14,52,8.90
2010,11,07,14,53,8.90
2010,11,07,14,54,8.90
2010,11,07,14,55,8.90
2010,11,07,14,56,8.90
2010,11,07,14,57,8.90
2010,11,07,14,58,8.90
2010,11,07,14,59,8.90
2010,11,07,15,00,8.90
2010,11,07,15,01,8.90
2010,11,07,15,02,8.90
2010,11,07,15,03,8.90
2010,11,07,15,04,8.90
2010,11,07,15,05,9.00
2010,11,07,15,06,9.00
2010,11,07,15,07,9.00
2010,11,07,15,08,9.00
2010,11,07,15,09,9.00
2010,11,07,15,10,9.00
2010,11,07,15,11,9.00
2010,11,07,15,12,9.00
2010,11,07,15,13,9.00
2010,11,07,15,14,9.00
2010,11,07,15,15,9.00
2010,11,07,15,16,9.00
2010,11,07,15,17,9.00
2010,11,07,15,18,9.00
2010,11,07,15,19,8.90
2010,11,07,15,20,8.90
2010,11,07,15,21,8.90
2010,11,07,15,22,8.90
2010,11,07,15,23,8.90
2010,11,07,15,24,8.90
2010,11,07,15,25,8.80
2010,11,07,15,26,8.80
2010,11,07,15,27,8.80
2010,11,07,15,28,8.80
2010,11,07,15,29,8.80
2010,11,07,15,30,8.80
2010,11,07,15,31,8.80
2010,11,07,15,32,8.80
2010,11,07,15,33,8.80
2010,11,07,15,34,8.80
2010,11,07,15,35,8.80
2010,11,07,15,36,8.80
2010,11,07,15,37,8.80
2010,11,07,15,38,8.80
2010,11,07,15,39,8.70
2010,11,07,15,40,8.70
2010,11,07,15,41,8.70
2010,11,07,15,42,8.70
2010,11,07,15,43,8.80
2010,11,07,15,44,8.80
2010,11,07,15,45,8.80
2010,11,07,15,46,8.80
2010,11,07,15,47,8.80
2010,11,07,15,48,8.80
2010,11,07,15,49,8.80
2010,11,07,15,50,8.80
2010,11,07,15,51,8.80
2010,11,07,15,52,8.80
2010,11,07,15,53,8.80
2010,11,07,15,54,8.70
2010,11,07,15,55,8.70
2010,11,07,15,56,8.70
2010,11,07,15,57,8.70
2010,11,07,15,58,8.70
2010,11,07,15,59,8.60
2010,11,07,16,00,8.50
2010,11,07,16,01,8.50
2010,11,07,16,02,8.40
2010,11,07,16,03,8.40
2010,11,07,16,04,8.30
2010,11,07,16,05,8.30
2010,11,07,16,06,8.30
2010,11,07,16,07,8.20
2010,11,07,16,08,8.20
2010,11,07,16,09,8.10
2010,11,07,16,10,8.10
2010,11,07,16,11,8.10
2010,11,07,16,12,8.10
2010,11,07,16,13,8.10
2010,11,07,16,14,8.00
2010,11,07,16,15,8.00
2010,11,07,16,16,8.00
2010,11,07,16,17,8.00
2010,11,07,16,18,8.00
2010,11,07,16,19,8.00
2010,11,07,16,20,8.00
2010,11,07,16,21,8.00
2010,11,07,16,22,8.00
2010,11,07,16,23,8.00
2010,11,07,16,24,7.90
2010,11,07,16,25,8.00
2010,11,07,16,26,7.90
2010,11,07,16,27,7.90
2010,11,07,16,28,7.90
2010,11,07,16,29,7.90
2010,11,07,16,30,7.90
2010,11,07,16,31,7.90
2010,11,07,16,32,7.90
2010,11,07,16,33,7.90
2010,11,07,16,34,7.80
2010,11,07,16,35,7.80
2010,11,07,16,36,7.80
2010,11,07,16,37,7.80
2010,11,07,16,38,7.80
2010,11,07,16,39,7.80
2010,11,07,16,40,7.80
2010,11,07,16,41,7.80
2010,11,07,16,42,7.80
2010,11,07,16,43,7.70
2010,11,07,16,44,7.70
2010,11,07,16,45,7.70
2010,11,07,16,46,7.70
2010,11,07,16,47,7.70
2010,11,07,16,48,7.60
2010,11,07,16,49,7.60
2010,11,07,16,50,7.60
2010,11,07,16,51,7.60
2010,11,07,16,52,7.60
2010,11,07,16,53,7.60
2010,11,07,16,54,7.50
2010,11,07,16,55,7.50
2010,11,07,16,56,7.50
2010,11,07,16,57,7.50
2010,11,07,16,58,7.50
2010,11,07,16,59,7.40
2010,11,07,17,00,7.40
2010,11,07,17,01,7.40
2010,11,07,17,02,7.40
2010,11,07,17,03,7.30
2010,11,07,17,04,7.30
2010,11,07,17,05,7.30
2010,11,07,17,06,7.30
2010,11,07,17,07,7.20
2010,11,07,17,08,7.20
2010,11,07,17,09,7.20
2010,11,07,17,10,7.20
2010,11,07,17,11,7.20
2010,11,07,17,12,7.20
2010,11,07,17,13,7.20
2010,11,07,17,14,7.20
2010,11,07,17,15,7.20
2010,11,07,17,16,7.10
2010,11,07,17,17,7.10
2010,11,07,17,18,7.10
2010,11,07,17,19,7.10
2010,11,07,17,20,7.00
2010,11,07,17,21,7.00
2010,11,07,17,22,7.00
2010,11,07,17,23,7.00
2010,11,07,17,24,7.00
2010,11,07,17,25,6.90
2010,11,07,17,26,6.90
2010,11,07,17,27,6.90
2010,11,07,17,28,6.90
2010,11,07,17,29,6.90
2010,11,07,17,30,6.90
2010,11,07,17,31,6.90
2010,11,07,17,32,6.90
2010,11,07,17,33,6.90
2010,11,07,17,34,6.90
2010,11,07,17,35,6.90
2010,11,07,17,36,6.90
2010,11,07,17,37,6.90
2010,11,07,17,38,6.80
2010,11,07,17,39,6.80
2010,11,07,17,40,6.80
2010,11,07,17,41,6.80
2010,11,07,17,42,6.80
2010,11,07,17,43,6.80
2010,11,07,17,44,6.90
2010,11,07,17,45,6.90
2010,11,07,17,46,6.90
2010,11,07,17,47,6.90
2010,11,07,17,48,6.90
2010,11,07,17,49,6.90
2010,11,07,17,50,6.90
2010,11,07,17,51,6.90
2010,11,07,17,52,6.90
2010,11,07,17,53,7.00
2010,11,07,17,54,7.00
2010,11,07,17,55,7.00
2010,11,07,17,56,7.00
2010,11,07,17,57,7.00
2010,11,07,17,58,7.00
2010,11,07,17,59,7.00
2010,11,07,18,00,7.00
2010,11,07,18,01,7.00
2010,11,07,18,02,7.00
2010,11,07,18,03,7.00
2010,11,07,18,04,7.00
2010,11,07,18,05,7.00
2010,11,07,18,06,7.00
2010,11,07,18,07,7.00
2010,11,07,18,08,7.00
2010,11,07,18,09,7.00
2010,11,07,18,10,7.00
2010,11,07,18,11,6.90
2010,11,07,18,12,7.00
2010,11,07,18,13,7.00
2010,11,07,18,14,7.00